Tracking 34408 objects as of 14-Jun-2026
HD Live streaming from Space Station
objects crossing your sky now

THORAD AGENA D DEB

Track THORAD AGENA D DEB now!
10-day predictions


NORAD ID: 5183
Int'l Code: 1970-025JZ
Perigee: 949.7 km
Apogee: 997.4 km
Inclination: 100.0 °
Period: 104.4 minutes
Semi major axis: 7344 km
RCS: 0.0421 m2 (small)
Launch date: April 8, 1970
Source: United States (US)
Launch site: AIR FORCE WESTERN TEST RANGE (AFWTR)

Note: This is SATELLITE DEBRIS
Your satellite tracking list
Your tracking list is empty




NASA's NSSDC Master Catalog

Two Line Element Set (TLE):
1  5183U 70025JZ  26165.20459236  .00000408  00000-0  44464-3 0  9999
2  5183 100.0254  55.0161 0032462 294.3192 190.7795 13.79282492804249
Source of the keplerian elements: AFSPC